THOR AGENA D R/B, 2255

Orbit data source: Space-Track

THOR AGENA D R/B, 2255 is space debris in LEO originally from a launch on Fri, 24 Jun 1966 UTC launched from the Air Force Western Test Range (AFWTR). Debris objects in space refer to the collection of defunct objects orbiting the Earth. Examples of debris include non-operational satellites, rocket bodies, and fragments generated from explosions, collisions, or faulty payload assembly.

Loading next visibility...
Identifier
2255, 1966-056B
Orbit
LEO
Country
Flag of USUS
Related business
Manufacturer
LMSC
Mission
Spacecraft
Bus & Motor
AGENA D, Unknown motor
Mass
600 kg wet, 600 kg dry
Launch date (UTC)
1966-06-24 (59 years ago)
Launch vehicle
Unknown
Launch site
Air Force Western Test Range (AFWTR)
Object type
Payload
Rocket body
Debris
Shape & HBR
Unknown
Radar Cross Section
Large (>1 m²)

Expand to show TLE details & history
Last TLE update: 13 hours ago

TLE from 13 hours ago
0 THOR AGENA D R/B
1 02255U 66056B   25293.82619272 -.00000007  00000-0 -83429-2 0  9992
2 02255  86.9759 200.1880 0047272 296.9868  62.6117  7.94756797721306
Epoch: 2025-10-20T19:49Z
TLE epoch observation values (Epoch: 2025-10-20T19:49:43.051Z)
Latitude
-0.00004°
Longitude
-126.76431°
Altitude
4,207.715 km
Speed
6.144 km/s
True Right ascension
13h 20m 45s
True Declination
0° 00' 00"
Sunlit
Object was in daylight at epoch
Visualization orbit readout
Latitude
Unknown
Longitude
Unknown
Altitude
Unknown
Speed
Unknown
Apparent Right ascension
Unknown
Apparent Declination
Unknown
Sunlit
N/A
Visualization observer readout
Local Sidereal Time
03:32:53
Azimuth
Unknown
Elevation
Unknown
Doppler factor
Unknown
Orbital elements
Apogee altitude
4,276.61 km
Perigee altitude
4,176.35 km
Semi-major axis
10,604.617 km
Eccentricity
0.00473
Inclination
86.9759°
RAAN
200.188°
Arg. of periapsis
296.9868°
True anomaly
63.09398°
Mean anomaly
62.6117°
Eccentric anomaly
62.85271°
Mean motion
1.98747 °/min
Orbital period
181.13 mins
BSTAR
-0.0083429
Loading maneuver chart data...
Computing Atmospheric mass density...

Documentation

Showing up to 5 results
|